軌道要素
Epoch 2003 Aug. 29.0 TT = JDT 2452880.5
T 2003 Sept. 8.81733 TT MPCW
q 0.0568917 (2000.0) P Q
n 0.24582022 Peri. 43.75801 +0.66199548 -0.74923591
a 2.5238157 Node 4.91711 +0.60643027 +0.51960093
e 0.9774581 Incl. 13.62231 +0.44045921 +0.41068287
P 4.01
From 244 observations 1999 Sept. 4-2015 May 22.
|